owner,sensor,date,latitude,longitude,vertical_datum,sea_water_temperature,qcFlag 
NERRS,ioos:station:NOAA.NERRS:wkbfrwq:1,2017-01-01T01:45:00Z,30.4162,-87.8228,0.0,14.5,2 
NERRS,ioos:station:NOAA.NERRS:wkbfrwq:1,2017-01-01T02:45:00Z,30.4162,-87.8228,0.0,14.8,2 
NERRS,ioos:station:NOAA.NERRS:wkbfrwq:1,2017-01-01T03:45:00Z,30.4162,-87.8228,0.0,14.8,2 
NERRS,ioos:station:NOAA.NERRS:wkbfrwq:1,2017-01-01T04:45:00Z,30.4162,-87.8228,0.0,14.9,2 
NERRS,ioos:station:NOAA.NERRS:wkbfrwq:1,2017-01-01T05:45:00Z,30.4162,-87.8228,0.0,14.9,2 
NERRS,ioos:station:NOAA.NERRS:wkbfrwq:1,2017-01-01T07:45:00Z,30.4162,-87.8228,0.0,15.0,2 
NERRS,ioos:station:NOAA.NERRS:wkbfrwq:1,2017-01-01T08:45:00Z,30.4162,-87.8228,0.0,15.0,2 
NERRS,ioos:station:NOAA.NERRS:wkbfrwq:1,2017-01-01T09:45:00Z,30.4162,-87.8228,0.0,14.9,2 
NERRS,ioos:station:NOAA.NERRS:wkbfrwq:1,2017-01-01T10:45:00Z,30.4162,-87.8228,0.0,15.1,2 
NERRS,ioos:station:NOAA.NERRS:wkbfrwq:1,2017-01-01T11:45:00Z,30.4162,-87.8228,0.0,15.4,2 
NERRS,ioos:station:NOAA.NERRS:wkbfrwq:1,2017-01-01T13:45:00Z,30.4162,-87.8228,0.0,16.3,2 
NERRS,ioos:station:NOAA.NERRS:wkbfrwq:1,2017-01-01T14:45:00Z,30.4162,-87.8228,0.0,16.4,2 
NERRS,ioos:station:NOAA.NERRS:wkbfrwq:1,2017-01-01T15:45:00Z,30.4162,-87.8228,0.0,16.4,2 
NERRS,ioos:station:NOAA.NERRS:wkbfrwq:1,2017-01-01T16:45:00Z,30.4162,-87.8228,0.0,16.3,2 
NERRS,ioos:station:NOAA.NERRS:wkbfrwq:1,2017-01-01T17:45:00Z,30.4162,-87.8228,0.0,16.6,2 
NERRS,ioos:station:NOAA.NERRS:wkbfrwq:1,2017-01-01T18:45:00Z,30.4162,-87.8228,0.0,16.1,2 
NERRS,ioos:station:NOAA.NERRS:wkbfrwq:1,2017-01-01T19:45:00Z,30.4162,-87.8228,0.0,16.4,2 
NERRS,ioos:station:NOAA.NERRS:wkbfrwq:1,2017-01-01T20:45:00Z,30.4162,-87.8228,0.0,16.8,2 
NERRS,ioos:station:NOAA.NERRS:wkbfrwq:1,2017-01-01T21:45:00Z,30.4162,-87.8228,0.0,16.9,2 
NERRS,ioos:station:NOAA.NERRS:wkbfrwq:1,2017-01-01T23:45:00Z,30.4162,-87.8228,0.0,17.0,2 
NERRS,ioos:station:NOAA.NERRS:wkbfrwq:1,2017-01-02T00:45:00Z,30.4162,-87.8228,0.0,17.1,2 
NERRS,ioos:station:NOAA.NERRS:wkbfrwq:1,2017-01-02T01:45:00Z,30.4162,-87.8228,0.0,17.1,2 
NERRS,ioos:station:NOAA.NERRS:wkbfrwq:1,2017-01-02T02:45:00Z,30.4162,-87.8228,0.0,17.2,2 
NERRS,ioos:station:NOAA.NERRS:wkbfrwq:1,2017-01-02T05:45:00Z,30.4162,-87.8228,0.0,17.2,2 
NERRS,ioos:station:NOAA.NERRS:wkbfrwq:1,2017-01-02T06:45:00Z,30.4162,-87.8228,0.0,17.2,2 
NERRS,ioos:station:NOAA.NERRS:wkbfrwq:1,2017-01-02T07:45:00Z,30.4162,-87.8228,0.0,17.2,2 
NERRS,ioos:station:NOAA.NERRS:wkbfrwq:1,2017-01-02T08:45:00Z,30.4162,-87.8228,0.0,17.2,2 
NERRS,ioos:station:NOAA.NERRS:wkbfrwq:1,2017-01-02T09:45:00Z,30.4162,-87.8228,0.0,17.2,2 
NERRS,ioos:station:NOAA.NERRS:wkbfrwq:1,2017-01-02T10:45:00Z,30.4162,-87.8228,0.0,17.2,2 
NERRS,ioos:station:NOAA.NERRS:wkbfrwq:1,2017-01-02T13:45:00Z,30.4162,-87.8228,0.0,17.3,2 
NERRS,ioos:station:NOAA.NERRS:wkbfrwq:1,2017-01-02T14:45:00Z,30.4162,-87.8228,0.0,17.3,2 
NERRS,ioos:station:NOAA.NERRS:wkbfrwq:1,2017-01-02T15:45:00Z,30.4162,-87.8228,0.0,17.4,2 
NERRS,ioos:station:NOAA.NERRS:wkbfrwq:1,2017-01-02T16:45:00Z,30.4162,-87.8228,0.0,17.5,2 
NERRS,ioos:station:NOAA.NERRS:wkbfrwq:1,2017-01-02T17:45:00Z,30.4162,-87.8228,0.0,17.6,2 
NERRS,ioos:station:NOAA.NERRS:wkbfrwq:1,2017-01-02T18:45:00Z,30.4162,-87.8228,0.0,17.6,2 
NERRS,ioos:station:NOAA.NERRS:wkbfrwq:1,2017-01-02T20:45:00Z,30.4162,-87.8228,0.0,17.7,2 
NERRS,ioos:station:NOAA.NERRS:wkbfrwq:1,2017-01-02T22:45:00Z,30.4162,-87.8228,0.0,17.7,2 
NERRS,ioos:station:NOAA.NERRS:wkbfrwq:1,2017-01-02T23:45:00Z,30.4162,-87.8228,0.0,17.8,2 
NERRS,ioos:station:NOAA.NERRS:wkbfrwq:1,2017-01-03T00:45:00Z,30.4162,-87.8228,0.0,18.2,2 
NERRS,ioos:station:NOAA.NERRS:wkbfrwq:1,2017-01-03T01:45:00Z,30.4162,-87.8228,0.0,17.8,2 
NERRS,ioos:station:NOAA.NERRS:wkbfrwq:1,2017-01-03T02:45:00Z,30.4162,-87.8228,0.0,17.8,2 
NERRS,ioos:station:NOAA.NERRS:wkbfrwq:1,2017-01-03T03:45:00Z,30.4162,-87.8228,0.0,17.7,2 
NERRS,ioos:station:NOAA.NERRS:wkbfrwq:1,2017-01-03T04:45:00Z,30.4162,-87.8228,0.0,17.8,2 
NERRS,ioos:station:NOAA.NERRS:wkbfrwq:1,2017-01-03T05:45:00Z,30.4162,-87.8228,0.0,17.8,2 
NERRS,ioos:station:NOAA.NERRS:wkbfrwq:1,2017-01-03T06:45:00Z,30.4162,-87.8228,0.0,17.8,2 
NERRS,ioos:station:NOAA.NERRS:wkbfrwq:1,2017-01-03T07:45:00Z,30.4162,-87.8228,0.0,17.8,2 
NERRS,ioos:station:NOAA.NERRS:wkbfrwq:1,2017-01-03T08:45:00Z,30.4162,-87.8228,0.0,17.8,2 
NERRS,ioos:station:NOAA.NERRS:wkbfrwq:1,2017-01-03T09:45:00Z,30.4162,-87.8228,0.0,17.8,2 
NERRS,ioos:station:NOAA.NERRS:wkbfrwq:1,2017-01-03T10:45:00Z,30.4162,-87.8228,0.0,17.9,2 
NERRS,ioos:station:NOAA.NERRS:wkbfrwq:1,2017-01-03T11:45:00Z,30.4162,-87.8228,0.0,17.9,2 
NERRS,ioos:station:NOAA.NERRS:wkbfrwq:1,2017-01-03T12:45:00Z,30.4162,-87.8228,0.0,17.8,2 
NERRS,ioos:station:NOAA.NERRS:wkbfrwq:1,2017-01-03T13:45:00Z,30.4162,-87.8228,0.0,17.8,2 
NERRS,ioos:station:NOAA.NERRS:wkbfrwq:1,2017-01-03T14:45:00Z,30.4162,-87.8228,0.0,17.7,2 
NERRS,ioos:station:NOAA.NERRS:wkbfrwq:1,2017-01-03T15:45:00Z,30.4162,-87.8228,0.0,17.8,2 
NERRS,ioos:station:NOAA.NERRS:wkbfrwq:1,2017-01-03T16:45:00Z,30.4162,-87.8228,0.0,17.9,2 
NERRS,ioos:station:NOAA.NERRS:wkbfrwq:1,2017-01-03T17:45:00Z,30.4162,-87.8228,0.0,17.9,2 
NERRS,ioos:station:NOAA.NERRS:wkbfrwq:1,2017-01-03T18:45:00Z,30.4162,-87.8228,0.0,18.1,2 
NERRS,ioos:station:NOAA.NERRS:wkbfrwq:1,2017-01-03T19:45:00Z,30.4162,-87.8228,0.0,18.2,2 
NERRS,ioos:station:NOAA.NERRS:wkbfrwq:1,2017-01-03T20:45:00Z,30.4162,-87.8228,0.0,18.2,2 
NERRS,ioos:station:NOAA.NERRS:wkbfrwq:1,2017-01-03T21:45:00Z,30.4162,-87.8228,0.0,18.3,2 
NERRS,ioos:station:NOAA.NERRS:wkbfrwq:1,2017-01-03T22:45:00Z,30.4162,-87.8228,0.0,18.2,2 
NERRS,ioos:station:NOAA.NERRS:wkbfrwq:1,2017-01-03T23:45:00Z,30.4162,-87.8228,0.0,18.1,2 
NERRS,ioos:station:NOAA.NERRS:wkbfrwq:1,2017-01-04T00:45:00Z,30.4162,-87.8228,0.0,18.0,2 
NERRS,ioos:station:NOAA.NERRS:wkbfrwq:1,2017-01-04T01:45:00Z,30.4162,-87.8228,0.0,18.0,2 
NERRS,ioos:station:NOAA.NERRS:wkbfrwq:1,2017-01-04T02:45:00Z,30.4162,-87.8228,0.0,17.9,2 
NERRS,ioos:station:NOAA.NERRS:wkbfrwq:1,2017-01-04T03:45:00Z,30.4162,-87.8228,0.0,17.9,2 
NERRS,ioos:station:NOAA.NERRS:wkbfrwq:1,2017-01-04T04:45:00Z,30.4162,-87.8228,0.0,17.9,2 
NERRS,ioos:station:NOAA.NERRS:wkbfrwq:1,2017-01-04T05:45:00Z,30.4162,-87.8228,0.0,17.8,2 
NERRS,ioos:station:NOAA.NERRS:wkbfrwq:1,2017-01-04T06:45:00Z,30.4162,-87.8228,0.0,17.8,2 
NERRS,ioos:station:NOAA.NERRS:wkbfrwq:1,2017-01-04T07:45:00Z,30.4162,-87.8228,0.0,17.7,2 
NERRS,ioos:station:NOAA.NERRS:wkbfrwq:1,2017-01-04T08:45:00Z,30.4162,-87.8228,0.0,17.7,2 
NERRS,ioos:station:NOAA.NERRS:wkbfrwq:1,2017-01-04T09:45:00Z,30.4162,-87.8228,0.0,17.6,2 
NERRS,ioos:station:NOAA.NERRS:wkbfrwq:1,2017-01-04T10:45:00Z,30.4162,-87.8228,0.0,17.6,2 
NERRS,ioos:station:NOAA.NERRS:wkbfrwq:1,2017-01-04T12:45:00Z,30.4162,-87.8228,0.0,17.4,2 
NERRS,ioos:station:NOAA.NERRS:wkbfrwq:1,2017-01-04T13:45:00Z,30.4162,-87.8228,0.0,17.4,2 
NERRS,ioos:station:NOAA.NERRS:wkbfrwq:1,2017-01-04T14:45:00Z,30.4162,-87.8228,0.0,17.3,2 
NERRS,ioos:station:NOAA.NERRS:wkbfrwq:1,2017-01-04T15:45:00Z,30.4162,-87.8228,0.0,17.2,2 
NERRS,ioos:station:NOAA.NERRS:wkbfrwq:1,2017-01-04T16:45:00Z,30.4162,-87.8228,0.0,17.3,2 
NERRS,ioos:station:NOAA.NERRS:wkbfrwq:1,2017-01-04T17:45:00Z,30.4162,-87.8228,0.0,17.4,2 
NERRS,ioos:station:NOAA.NERRS:wkbfrwq:1,2017-01-04T18:45:00Z,30.4162,-87.8228,0.0,17.5,2 
NERRS,ioos:station:NOAA.NERRS:wkbfrwq:1,2017-01-04T19:45:00Z,30.4162,-87.8228,0.0,17.5,2 
NERRS,ioos:station:NOAA.NERRS:wkbfrwq:1,2017-01-04T20:45:00Z,30.4162,-87.8228,0.0,17.6,2 
NERRS,ioos:station:NOAA.NERRS:wkbfrwq:1,2017-01-04T21:45:00Z,30.4162,-87.8228,0.0,17.5,2 
NERRS,ioos:station:NOAA.NERRS:wkbfrwq:1,2017-01-04T22:45:00Z,30.4162,-87.8228,0.0,17.5,2 
NERRS,ioos:station:NOAA.NERRS:wkbfrwq:1,2017-01-04T23:45:00Z,30.4162,-87.8228,0.0,17.4,2 
NERRS,ioos:station:NOAA.NERRS:wkbfrwq:1,2017-01-05T00:45:00Z,30.4162,-87.8228,0.0,17.3,2 
NERRS,ioos:station:NOAA.NERRS:wkbfrwq:1,2017-01-05T01:45:00Z,30.4162,-87.8228,0.0,17.3,2 
NERRS,ioos:station:NOAA.NERRS:wkbfrwq:1,2017-01-05T02:45:00Z,30.4162,-87.8228,0.0,17.2,2 
NERRS,ioos:station:NOAA.NERRS:wkbfrwq:1,2017-01-05T03:45:00Z,30.4162,-87.8228,0.0,17.2,2 
NERRS,ioos:station:NOAA.NERRS:wkbfrwq:1,2017-01-05T04:45:00Z,30.4162,-87.8228,0.0,17.1,2 
NERRS,ioos:station:NOAA.NERRS:wkbfrwq:1,2017-01-05T05:45:00Z,30.4162,-87.8228,0.0,17.1,2 
NERRS,ioos:station:NOAA.NERRS:wkbfrwq:1,2017-01-05T06:45:00Z,30.4162,-87.8228,0.0,17.0,2 
NERRS,ioos:station:NOAA.NERRS:wkbfrwq:1,2017-01-05T07:45:00Z,30.4162,-87.8228,0.0,16.9,2 
NERRS,ioos:station:NOAA.NERRS:wkbfrwq:1,2017-01-05T08:45:00Z,30.4162,-87.8228,0.0,16.8,2 
NERRS,ioos:station:NOAA.NERRS:wkbfrwq:1,2017-01-05T09:45:00Z,30.4162,-87.8228,0.0,16.8,2 
NERRS,ioos:station:NOAA.NERRS:wkbfrwq:1,2017-01-05T10:45:00Z,30.4162,-87.8228,0.0,16.7,2 
NERRS,ioos:station:NOAA.NERRS:wkbfrwq:1,2017-01-05T11:45:00Z,30.4162,-87.8228,0.0,16.7,2 
NERRS,ioos:station:NOAA.NERRS:wkbfrwq:1,2017-01-05T12:45:00Z,30.4162,-87.8228,0.0,16.7,2 
NERRS,ioos:station:NOAA.NERRS:wkbfrwq:1,2017-01-05T13:45:00Z,30.4162,-87.8228,0.0,16.5,2 
NERRS,ioos:station:NOAA.NERRS:wkbfrwq:1,2017-01-05T14:45:00Z,30.4162,-87.8228,0.0,16.5,2 
NERRS,ioos:station:NOAA.NERRS:wkbfrwq:1,2017-01-05T16:45:00Z,30.4162,-87.8228,0.0,16.4,2 
NERRS,ioos:station:NOAA.NERRS:wkbfrwq:1,2017-01-05T17:45:00Z,30.4162,-87.8228,0.0,16.3,2 
NERRS,ioos:station:NOAA.NERRS:wkbfrwq:1,2017-01-05T18:45:00Z,30.4162,-87.8228,0.0,16.3,2 
NERRS,ioos:station:NOAA.NERRS:wkbfrwq:1,2017-01-05T19:45:00Z,30.4162,-87.8228,0.0,16.3,2 
NERRS,ioos:station:NOAA.NERRS:wkbfrwq:1,2017-01-05T20:45:00Z,30.4162,-87.8228,0.0,16.3,2 
NERRS,ioos:station:NOAA.NERRS:wkbfrwq:1,2017-01-05T21:45:00Z,30.4162,-87.8228,0.0,16.3,2 
NERRS,ioos:station:NOAA.NERRS:wkbfrwq:1,2017-01-05T22:45:00Z,30.4162,-87.8228,0.0,16.8,2 
NERRS,ioos:station:NOAA.NERRS:wkbfrwq:1,2017-01-05T23:45:00Z,30.4162,-87.8228,0.0,17.0,2 
NERRS,ioos:station:NOAA.NERRS:wkbfrwq:1,2017-01-06T00:45:00Z,30.4162,-87.8228,0.0,16.5,2 
NERRS,ioos:station:NOAA.NERRS:wkbfrwq:1,2017-01-06T01:45:00Z,30.4162,-87.8228,0.0,16.6,2 
NERRS,ioos:station:NOAA.NERRS:wkbfrwq:1,2017-01-06T02:45:00Z,30.4162,-87.8228,0.0,16.5,2 
NERRS,ioos:station:NOAA.NERRS:wkbfrwq:1,2017-01-06T03:45:00Z,30.4162,-87.8228,0.0,16.4,2 
NERRS,ioos:station:NOAA.NERRS:wkbfrwq:1,2017-01-06T04:45:00Z,30.4162,-87.8228,0.0,16.4,2 
NERRS,ioos:station:NOAA.NERRS:wkbfrwq:1,2017-01-06T05:45:00Z,30.4162,-87.8228,0.0,16.4,2 
NERRS,ioos:station:NOAA.NERRS:wkbfrwq:1,2017-01-06T06:45:00Z,30.4162,-87.8228,0.0,16.3,2 
NERRS,ioos:station:NOAA.NERRS:wkbfrwq:1,2017-01-06T07:45:00Z,30.4162,-87.8228,0.0,16.3,2 
NERRS,ioos:station:NOAA.NERRS:wkbfrwq:1,2017-01-06T08:45:00Z,30.4162,-87.8228,0.0,16.4,2 
NERRS,ioos:station:NOAA.NERRS:wkbfrwq:1,2017-01-06T09:45:00Z,30.4162,-87.8228,0.0,16.4,2 
NERRS,ioos:station:NOAA.NERRS:wkbfrwq:1,2017-01-06T10:45:00Z,30.4162,-87.8228,0.0,16.3,2 
NERRS,ioos:station:NOAA.NERRS:wkbfrwq:1,2017-01-06T11:45:00Z,30.4162,-87.8228,0.0,16.6,2 
NERRS,ioos:station:NOAA.NERRS:wkbfrwq:1,2017-01-06T12:45:00Z,30.4162,-87.8228,0.0,16.5,2 
NERRS,ioos:station:NOAA.NERRS:wkbfrwq:1,2017-01-06T13:45:00Z,30.4162,-87.8228,0.0,16.7,2 
NERRS,ioos:station:NOAA.NERRS:wkbfrwq:1,2017-01-06T14:45:00Z,30.4162,-87.8228,0.0,16.5,2 
NERRS,ioos:station:NOAA.NERRS:wkbfrwq:1,2017-01-06T15:45:00Z,30.4162,-87.8228,0.0,16.6,2 
NERRS,ioos:station:NOAA.NERRS:wkbfrwq:1,2017-01-06T16:45:00Z,30.4162,-87.8228,0.0,16.6,2 
NERRS,ioos:station:NOAA.NERRS:wkbfrwq:1,2017-01-06T17:45:00Z,30.4162,-87.8228,0.0,16.5,2 
NERRS,ioos:station:NOAA.NERRS:wkbfrwq:1,2017-01-06T18:45:00Z,30.4162,-87.8228,0.0,15.9,2 
NERRS,ioos:station:NOAA.NERRS:wkbfrwq:1,2017-01-06T19:45:00Z,30.4162,-87.8228,0.0,15.1,2 
NERRS,ioos:station:NOAA.NERRS:wkbfrwq:1,2017-01-06T20:45:00Z,30.4162,-87.8228,0.0,15.4,2 
NERRS,ioos:station:NOAA.NERRS:wkbfrwq:1,2017-01-06T21:45:00Z,30.4162,-87.8228,0.0,15.1,2 
NERRS,ioos:station:NOAA.NERRS:wkbfrwq:1,2017-01-06T23:45:00Z,30.4162,-87.8228,0.0,13.6,2 
NERRS,ioos:station:NOAA.NERRS:wkbfrwq:1,2017-01-07T00:45:00Z,30.4162,-87.8228,0.0,13.5,2 
NERRS,ioos:station:NOAA.NERRS:wkbfrwq:1,2017-01-07T01:45:00Z,30.4162,-87.8228,0.0,13.9,2 
NERRS,ioos:station:NOAA.NERRS:wkbfrwq:1,2017-01-07T02:45:00Z,30.4162,-87.8228,0.0,13.5,2 
NERRS,ioos:station:NOAA.NERRS:wkbfrwq:1,2017-01-07T03:45:00Z,30.4162,-87.8228,0.0,13.5,2 
NERRS,ioos:station:NOAA.NERRS:wkbfrwq:1,2017-01-07T04:45:00Z,30.4162,-87.8228,0.0,13.7,2 
NERRS,ioos:station:NOAA.NERRS:wkbfrwq:1,2017-01-07T05:45:00Z,30.4162,-87.8228,0.0,13.2,2 
NERRS,ioos:station:NOAA.NERRS:wkbfrwq:1,2017-01-07T06:45:00Z,30.4162,-87.8228,0.0,13.6,2 
NERRS,ioos:station:NOAA.NERRS:wkbfrwq:1,2017-01-07T07:45:00Z,30.4162,-87.8228,0.0,13.3,2 
NERRS,ioos:station:NOAA.NERRS:wkbfrwq:1,2017-01-07T08:45:00Z,30.4162,-87.8228,0.0,13.2,2 
NERRS,ioos:station:NOAA.NERRS:wkbfrwq:1,2017-01-07T09:45:00Z,30.4162,-87.8228,0.0,12.8,2 
NERRS,ioos:station:NOAA.NERRS:wkbfrwq:1,2017-01-07T10:45:00Z,30.4162,-87.8228,0.0,13.0,2 
NERRS,ioos:station:NOAA.NERRS:wkbfrwq:1,2017-01-07T11:45:00Z,30.4162,-87.8228,0.0,12.8,2 
NERRS,ioos:station:NOAA.NERRS:wkbfrwq:1,2017-01-07T12:45:00Z,30.4162,-87.8228,0.0,12.6,2 
NERRS,ioos:station:NOAA.NERRS:wkbfrwq:1,2017-01-07T13:45:00Z,30.4162,-87.8228,0.0,12.5,2 
NERRS,ioos:station:NOAA.NERRS:wkbfrwq:1,2017-01-07T14:15:00Z,30.4162,-87.8228,0.0,12.5,2 
NERRS,ioos:station:NOAA.NERRS:wkbfrwq:1,2017-01-25T21:45:00Z,30.4162,-87.8228,0.0,18.7,2 
NERRS,ioos:station:NOAA.NERRS:wkbfrwq:1,2017-01-25T22:45:00Z,30.4162,-87.8228,0.0,19.6,2 
NERRS,ioos:station:NOAA.NERRS:wkbfrwq:1,2017-01-25T23:45:00Z,30.4162,-87.8228,0.0,19.6,2 
NERRS,ioos:station:NOAA.NERRS:wkbfrwq:1,2017-01-26T00:45:00Z,30.4162,-87.8228,0.0,19.5,2 
NERRS,ioos:station:NOAA.NERRS:wkbfrwq:1,2017-01-26T01:45:00Z,30.4162,-87.8228,0.0,19.7,2 
NERRS,ioos:station:NOAA.NERRS:wkbfrwq:1,2017-01-26T02:45:00Z,30.4162,-87.8228,0.0,19.7,2 
NERRS,ioos:station:NOAA.NERRS:wkbfrwq:1,2017-01-26T03:45:00Z,30.4162,-87.8228,0.0,19.6,2 
NERRS,ioos:station:NOAA.NERRS:wkbfrwq:1,2017-01-26T04:45:00Z,30.4162,-87.8228,0.0,19.5,2 
NERRS,ioos:station:NOAA.NERRS:wkbfrwq:1,2017-01-26T05:45:00Z,30.4162,-87.8228,0.0,19.3,2 
NERRS,ioos:station:NOAA.NERRS:wkbfrwq:1,2017-01-26T06:45:00Z,30.4162,-87.8228,0.0,19.2,2 
NERRS,ioos:station:NOAA.NERRS:wkbfrwq:1,2017-01-26T07:45:00Z,30.4162,-87.8228,0.0,19.4,2 
NERRS,ioos:station:NOAA.NERRS:wkbfrwq:1,2017-01-26T08:45:00Z,30.4162,-87.8228,0.0,19.2,2 
NERRS,ioos:station:NOAA.NERRS:wkbfrwq:1,2017-01-26T09:45:00Z,30.4162,-87.8228,0.0,19.1,2 
NERRS,ioos:station:NOAA.NERRS:wkbfrwq:1,2017-01-26T10:45:00Z,30.4162,-87.8228,0.0,18.9,2 
NERRS,ioos:station:NOAA.NERRS:wkbfrwq:1,2017-01-26T11:45:00Z,30.4162,-87.8228,0.0,18.4,2 
NERRS,ioos:station:NOAA.NERRS:wkbfrwq:1,2017-01-26T12:45:00Z,30.4162,-87.8228,0.0,18.2,2 
NERRS,ioos:station:NOAA.NERRS:wkbfrwq:1,2017-01-26T13:45:00Z,30.4162,-87.8228,0.0,18.5,2 
NERRS,ioos:station:NOAA.NERRS:wkbfrwq:1,2017-01-26T14:45:00Z,30.4162,-87.8228,0.0,18.0,2 
NERRS,ioos:station:NOAA.NERRS:wkbfrwq:1,2017-01-26T15:45:00Z,30.4162,-87.8228,0.0,17.9,2 
NERRS,ioos:station:NOAA.NERRS:wkbfrwq:1,2017-01-26T16:45:00Z,30.4162,-87.8228,0.0,17.9,2 
NERRS,ioos:station:NOAA.NERRS:wkbfrwq:1,2017-01-26T17:45:00Z,30.4162,-87.8228,0.0,18.0,2 
NERRS,ioos:station:NOAA.NERRS:wkbfrwq:1,2017-01-26T18:45:00Z,30.4162,-87.8228,0.0,18.2,2 
NERRS,ioos:station:NOAA.NERRS:wkbfrwq:1,2017-01-26T19:45:00Z,30.4162,-87.8228,0.0,18.5,2 
NERRS,ioos:station:NOAA.NERRS:wkbfrwq:1,2017-01-26T20:45:00Z,30.4162,-87.8228,0.0,18.5,2 
NERRS,ioos:station:NOAA.NERRS:wkbfrwq:1,2017-01-26T21:45:00Z,30.4162,-87.8228,0.0,18.6,2 
NERRS,ioos:station:NOAA.NERRS:wkbfrwq:1,2017-01-26T22:45:00Z,30.4162,-87.8228,0.0,18.6,2 
NERRS,ioos:station:NOAA.NERRS:wkbfrwq:1,2017-01-26T23:45:00Z,30.4162,-87.8228,0.0,18.6,2 
NERRS,ioos:station:NOAA.NERRS:wkbfrwq:1,2017-01-27T00:45:00Z,30.4162,-87.8228,0.0,18.6,2 
NERRS,ioos:station:NOAA.NERRS:wkbfrwq:1,2017-01-27T01:45:00Z,30.4162,-87.8228,0.0,18.5,2 
NERRS,ioos:station:NOAA.NERRS:wkbfrwq:1,2017-01-27T02:45:00Z,30.4162,-87.8228,0.0,18.3,2 
NERRS,ioos:station:NOAA.NERRS:wkbfrwq:1,2017-01-27T03:45:00Z,30.4162,-87.8228,0.0,18.3,2 
NERRS,ioos:station:NOAA.NERRS:wkbfrwq:1,2017-01-27T04:45:00Z,30.4162,-87.8228,0.0,18.4,2 
NERRS,ioos:station:NOAA.NERRS:wkbfrwq:1,2017-01-27T05:45:00Z,30.4162,-87.8228,0.0,18.4,2 
NERRS,ioos:station:NOAA.NERRS:wkbfrwq:1,2017-01-27T06:45:00Z,30.4162,-87.8228,0.0,18.5,2 
NERRS,ioos:station:NOAA.NERRS:wkbfrwq:1,2017-01-27T07:45:00Z,30.4162,-87.8228,0.0,18.5,2 
NERRS,ioos:station:NOAA.NERRS:wkbfrwq:1,2017-01-27T08:45:00Z,30.4162,-87.8228,0.0,18.4,2 
NERRS,ioos:station:NOAA.NERRS:wkbfrwq:1,2017-01-27T09:45:00Z,30.4162,-87.8228,0.0,18.0,2 
NERRS,ioos:station:NOAA.NERRS:wkbfrwq:1,2017-01-27T11:45:00Z,30.4162,-87.8228,0.0,17.2,2 
NERRS,ioos:station:NOAA.NERRS:wkbfrwq:1,2017-01-27T12:45:00Z,30.4162,-87.8228,0.0,17.7,2 
NERRS,ioos:station:NOAA.NERRS:wkbfrwq:1,2017-01-27T13:45:00Z,30.4162,-87.8228,0.0,18.3,2 
NERRS,ioos:station:NOAA.NERRS:wkbfrwq:1,2017-01-27T14:45:00Z,30.4162,-87.8228,0.0,16.3,2 
NERRS,ioos:station:NOAA.NERRS:wkbfrwq:1,2017-01-27T15:45:00Z,30.4162,-87.8228,0.0,16.3,2 
NERRS,ioos:station:NOAA.NERRS:wkbfrwq:1,2017-01-27T16:45:00Z,30.4162,-87.8228,0.0,16.7,2 
NERRS,ioos:station:NOAA.NERRS:wkbfrwq:1,2017-01-27T17:45:00Z,30.4162,-87.8228,0.0,16.8,2 
NERRS,ioos:station:NOAA.NERRS:wkbfrwq:1,2017-01-27T18:45:00Z,30.4162,-87.8228,0.0,16.5,2 
NERRS,ioos:station:NOAA.NERRS:wkbfrwq:1,2017-01-27T19:45:00Z,30.4162,-87.8228,0.0,16.4,2 
NERRS,ioos:station:NOAA.NERRS:wkbfrwq:1,2017-01-27T20:45:00Z,30.4162,-87.8228,0.0,16.4,2 
NERRS,ioos:station:NOAA.NERRS:wkbfrwq:1,2017-01-27T21:45:00Z,30.4162,-87.8228,0.0,16.3,2 
NERRS,ioos:station:NOAA.NERRS:wkbfrwq:1,2017-01-27T22:45:00Z,30.4162,-87.8228,0.0,16.2,2 
NERRS,ioos:station:NOAA.NERRS:wkbfrwq:1,2017-01-27T23:45:00Z,30.4162,-87.8228,0.0,15.9,2 
NERRS,ioos:station:NOAA.NERRS:wkbfrwq:1,2017-01-28T00:45:00Z,30.4162,-87.8228,0.0,15.8,2 
NERRS,ioos:station:NOAA.NERRS:wkbfrwq:1,2017-01-28T01:45:00Z,30.4162,-87.8228,0.0,15.8,2 
NERRS,ioos:station:NOAA.NERRS:wkbfrwq:1,2017-01-28T02:45:00Z,30.4162,-87.8228,0.0,15.8,2 
NERRS,ioos:station:NOAA.NERRS:wkbfrwq:1,2017-01-28T03:45:00Z,30.4162,-87.8228,0.0,15.4,2 
NERRS,ioos:station:NOAA.NERRS:wkbfrwq:1,2017-01-28T04:45:00Z,30.4162,-87.8228,0.0,15.5,2 
NERRS,ioos:station:NOAA.NERRS:wkbfrwq:1,2017-01-28T05:45:00Z,30.4162,-87.8228,0.0,15.5,2 
NERRS,ioos:station:NOAA.NERRS:wkbfrwq:1,2017-01-28T06:45:00Z,30.4162,-87.8228,0.0,15.4,2 
NERRS,ioos:station:NOAA.NERRS:wkbfrwq:1,2017-01-28T07:45:00Z,30.4162,-87.8228,0.0,15.6,2 
NERRS,ioos:station:NOAA.NERRS:wkbfrwq:1,2017-01-28T08:45:00Z,30.4162,-87.8228,0.0,15.6,2 
NERRS,ioos:station:NOAA.NERRS:wkbfrwq:1,2017-01-28T09:45:00Z,30.4162,-87.8228,0.0,15.7,2 
NERRS,ioos:station:NOAA.NERRS:wkbfrwq:1,2017-01-28T10:45:00Z,30.4162,-87.8228,0.0,15.8,2 
NERRS,ioos:station:NOAA.NERRS:wkbfrwq:1,2017-01-28T11:45:00Z,30.4162,-87.8228,0.0,16.0,2 
NERRS,ioos:station:NOAA.NERRS:wkbfrwq:1,2017-01-28T12:45:00Z,30.4162,-87.8228,0.0,16.1,2 
NERRS,ioos:station:NOAA.NERRS:wkbfrwq:1,2017-01-28T13:45:00Z,30.4162,-87.8228,0.0,16.3,2 
NERRS,ioos:station:NOAA.NERRS:wkbfrwq:1,2017-01-28T14:45:00Z,30.4162,-87.8228,0.0,16.3,2 
NERRS,ioos:station:NOAA.NERRS:wkbfrwq:1,2017-01-28T15:45:00Z,30.4162,-87.8228,0.0,16.1,2 
NERRS,ioos:station:NOAA.NERRS:wkbfrwq:1,2017-01-28T16:45:00Z,30.4162,-87.8228,0.0,16.0,2 
NERRS,ioos:station:NOAA.NERRS:wkbfrwq:1,2017-01-28T17:45:00Z,30.4162,-87.8228,0.0,15.7,2 
NERRS,ioos:station:NOAA.NERRS:wkbfrwq:1,2017-01-28T18:45:00Z,30.4162,-87.8228,0.0,14.4,2 
NERRS,ioos:station:NOAA.NERRS:wkbfrwq:1,2017-01-28T19:45:00Z,30.4162,-87.8228,0.0,14.1,2 
NERRS,ioos:station:NOAA.NERRS:wkbfrwq:1,2017-01-28T20:45:00Z,30.4162,-87.8228,0.0,14.2,2 
NERRS,ioos:station:NOAA.NERRS:wkbfrwq:1,2017-01-28T21:45:00Z,30.4162,-87.8228,0.0,14.4,2 
NERRS,ioos:station:NOAA.NERRS:wkbfrwq:1,2017-01-28T22:45:00Z,30.4162,-87.8228,0.0,14.4,2 
NERRS,ioos:station:NOAA.NERRS:wkbfrwq:1,2017-01-28T23:45:00Z,30.4162,-87.8228,0.0,14.5,2 
NERRS,ioos:station:NOAA.NERRS:wkbfrwq:1,2017-01-29T00:45:00Z,30.4162,-87.8228,0.0,14.3,2 
NERRS,ioos:station:NOAA.NERRS:wkbfrwq:1,2017-01-29T01:45:00Z,30.4162,-87.8228,0.0,14.4,2 
NERRS,ioos:station:NOAA.NERRS:wkbfrwq:1,2017-01-29T03:45:00Z,30.4162,-87.8228,0.0,13.6,2 
NERRS,ioos:station:NOAA.NERRS:wkbfrwq:1,2017-01-29T04:45:00Z,30.4162,-87.8228,0.0,13.7,2 
NERRS,ioos:station:NOAA.NERRS:wkbfrwq:1,2017-01-29T05:45:00Z,30.4162,-87.8228,0.0,14.2,2 
NERRS,ioos:station:NOAA.NERRS:wkbfrwq:1,2017-01-29T07:45:00Z,30.4162,-87.8228,0.0,14.0,2 
NERRS,ioos:station:NOAA.NERRS:wkbfrwq:1,2017-01-29T08:45:00Z,30.4162,-87.8228,0.0,14.1,2 
NERRS,ioos:station:NOAA.NERRS:wkbfrwq:1,2017-01-29T09:45:00Z,30.4162,-87.8228,0.0,13.8,2 
NERRS,ioos:station:NOAA.NERRS:wkbfrwq:1,2017-01-29T10:45:00Z,30.4162,-87.8228,0.0,14.5,2 
NERRS,ioos:station:NOAA.NERRS:wkbfrwq:1,2017-01-29T11:45:00Z,30.4162,-87.8228,0.0,14.9,2 
NERRS,ioos:station:NOAA.NERRS:wkbfrwq:1,2017-01-29T12:45:00Z,30.4162,-87.8228,0.0,14.7,2 
NERRS,ioos:station:NOAA.NERRS:wkbfrwq:1,2017-01-29T13:45:00Z,30.4162,-87.8228,0.0,14.9,2 
NERRS,ioos:station:NOAA.NERRS:wkbfrwq:1,2017-01-29T14:45:00Z,30.4162,-87.8228,0.0,14.7,2 
NERRS,ioos:station:NOAA.NERRS:wkbfrwq:1,2017-01-29T15:45:00Z,30.4162,-87.8228,0.0,14.5,2 
NERRS,ioos:station:NOAA.NERRS:wkbfrwq:1,2017-01-29T17:45:00Z,30.4162,-87.8228,0.0,14.7,2 
NERRS,ioos:station:NOAA.NERRS:wkbfrwq:1,2017-01-29T18:45:00Z,30.4162,-87.8228,0.0,13.1,2 
NERRS,ioos:station:NOAA.NERRS:wkbfrwq:1,2017-01-29T19:45:00Z,30.4162,-87.8228,0.0,13.7,2 
NERRS,ioos:station:NOAA.NERRS:wkbfrwq:1,2017-01-29T20:45:00Z,30.4162,-87.8228,0.0,12.9,2 
NERRS,ioos:station:NOAA.NERRS:wkbfrwq:1,2017-01-29T21:45:00Z,30.4162,-87.8228,0.0,12.6,2 
NERRS,ioos:station:NOAA.NERRS:wkbfrwq:1,2017-01-29T22:45:00Z,30.4162,-87.8228,0.0,13.2,2 
NERRS,ioos:station:NOAA.NERRS:wkbfrwq:1,2017-01-29T23:45:00Z,30.4162,-87.8228,0.0,13.8,2 
NERRS,ioos:station:NOAA.NERRS:wkbfrwq:1,2017-01-30T00:45:00Z,30.4162,-87.8228,0.0,13.5,2 
NERRS,ioos:station:NOAA.NERRS:wkbfrwq:1,2017-01-30T01:45:00Z,30.4162,-87.8228,0.0,13.9,2 
NERRS,ioos:station:NOAA.NERRS:wkbfrwq:1,2017-01-30T02:45:00Z,30.4162,-87.8228,0.0,14.0,2 
NERRS,ioos:station:NOAA.NERRS:wkbfrwq:1,2017-01-30T03:45:00Z,30.4162,-87.8228,0.0,14.0,2 
NERRS,ioos:station:NOAA.NERRS:wkbfrwq:1,2017-01-30T04:45:00Z,30.4162,-87.8228,0.0,14.1,2 
NERRS,ioos:station:NOAA.NERRS:wkbfrwq:1,2017-01-30T05:45:00Z,30.4162,-87.8228,0.0,14.1,2 
NERRS,ioos:station:NOAA.NERRS:wkbfrwq:1,2017-01-30T06:45:00Z,30.4162,-87.8228,0.0,14.3,2 
NERRS,ioos:station:NOAA.NERRS:wkbfrwq:1,2017-01-30T07:45:00Z,30.4162,-87.8228,0.0,14.6,2 
NERRS,ioos:station:NOAA.NERRS:wkbfrwq:1,2017-01-30T08:45:00Z,30.4162,-87.8228,0.0,14.4,2 
NERRS,ioos:station:NOAA.NERRS:wkbfrwq:1,2017-01-30T09:45:00Z,30.4162,-87.8228,0.0,14.3,2 
NERRS,ioos:station:NOAA.NERRS:wkbfrwq:1,2017-01-30T10:45:00Z,30.4162,-87.8228,0.0,13.7,2 
NERRS,ioos:station:NOAA.NERRS:wkbfrwq:1,2017-01-30T11:45:00Z,30.4162,-87.8228,0.0,14.2,2 
NERRS,ioos:station:NOAA.NERRS:wkbfrwq:1,2017-01-30T12:45:00Z,30.4162,-87.8228,0.0,14.6,2 
NERRS,ioos:station:NOAA.NERRS:wkbfrwq:1,2017-01-30T13:45:00Z,30.4162,-87.8228,0.0,14.3,2 
NERRS,ioos:station:NOAA.NERRS:wkbfrwq:1,2017-01-30T17:45:00Z,30.4162,-87.8228,0.0,13.8,2 
NERRS,ioos:station:NOAA.NERRS:wkbfrwq:1,2017-01-30T18:45:00Z,30.4162,-87.8228,0.0,13.7,2 
NERRS,ioos:station:NOAA.NERRS:wkbfrwq:1,2017-01-30T19:45:00Z,30.4162,-87.8228,0.0,13.6,2 
NERRS,ioos:station:NOAA.NERRS:wkbfrwq:1,2017-01-30T20:45:00Z,30.4162,-87.8228,0.0,13.7,2 
NERRS,ioos:station:NOAA.NERRS:wkbfrwq:1,2017-01-30T21:45:00Z,30.4162,-87.8228,0.0,14.0,2 
NERRS,ioos:station:NOAA.NERRS:wkbfrwq:1,2017-01-30T22:45:00Z,30.4162,-87.8228,0.0,14.3,2 
NERRS,ioos:station:NOAA.NERRS:wkbfrwq:1,2017-01-30T23:45:00Z,30.4162,-87.8228,0.0,13.6,2 
NERRS,ioos:station:NOAA.NERRS:wkbfrwq:1,2017-01-31T00:45:00Z,30.4162,-87.8228,0.0,13.6,2 
NERRS,ioos:station:NOAA.NERRS:wkbfrwq:1,2017-01-31T01:45:00Z,30.4162,-87.8228,0.0,13.6,2 
NERRS,ioos:station:NOAA.NERRS:wkbfrwq:1,2017-01-31T02:45:00Z,30.4162,-87.8228,0.0,14.6,2 